Weather History for Hot Springs, VA

Change the Weather History Date:

Saturday, February 23, 2013

  Actual Average Record
Temperature  
Mean Temperature 37 °F -  
Max Temperature 46 °F 37 °F 53 °F (2012)
Min Temperature 28 °F 23 °F 8 °F (1999)
Degree Days  
Heating Degree Days 28    
Moisture  
Dew Point 36 °F    
Average Humidity 90    
Maximum Humidity 100    
Minimum Humidity 71    
Precipitation  
Precipitation 0.00 in - - ()
Sea Level Pressure  
Sea Level Pressure 29.91 in    
Wind  
Wind Speed 6 mph (WSW)    
Max Wind Speed 15 mph    
Max Gust Speed -    
Visibility 6 miles    
Events Fog , Rain , Snow    
Averages and records for this station are not official NWS values.
T = Trace of Precipitation, MM = Missing Value Source: NWS Daily Summary

Daily Weather History Graph

Daily Weather History Graph

Search for Another Location

Airport:

Trip Planner

Search our weather history database for the weather conditions in past years. The results will help you decide how hot, cold, wet, or windy it might be!

Date:

Astronomy

Feb. 23, 2013 Rise Set
Actual Time 6:58 AM EST 6:06 PM EST
Civil Twilight 6:32 AM EST 6:33 PM EST
Nautical Twilight 6:01 AM EST 7:04 PM EST
Astronomical Twilight 5:31 AM EST 7:34 PM EST
Moon 4:16 PM EST 5:19 AM EST
Length of Visible Light 12h 01m
Length of Day
11h 08m
Waxing Gibbous, 95% of the Moon is Illuminated
Feb 23
Waxing Gibbous
Feb 25
Full
Mar 4
Last Quarter
Mar 11
New
Mar 19
First Quarter

Hourly Weather History & Observations

Time (EST) Temp. Windchill Dew Point Humidity Pressure Visibility Wind Dir Wind Speed Gust Speed Precip Events Conditions
12:15 AM 28.4 °F - 28.4 °F 100% 30.02 in 0.2 mi Calm Calm - N/A Fog Light Freezing Fog
12:35 AM 28.4 °F 23.3 °F 28.4 °F 100% 30.02 in 0.2 mi South 4.6 mph - N/A Fog Light Freezing Fog
12:55 AM 28.4 °F - 28.4 °F 100% 30.02 in 0.2 mi Calm Calm - N/A Fog Light Freezing Fog
1:15 AM 28.4 °F 22.2 °F 28.4 °F 100% 30.02 in 0.2 mi South 5.8 mph - N/A Fog Light Freezing Fog
1:35 AM 28.4 °F 21.2 °F 28.4 °F 100% 30.02 in 0.2 mi South 6.9 mph - N/A Snow Light Snow
1:55 AM 28.4 °F 21.2 °F 28.4 °F 100% 30.01 in 0.2 mi South 6.9 mph - N/A Snow Light Snow
2:15 AM 30.2 °F 23.4 °F 30.2 °F 100% 29.99 in 0.2 mi South 6.9 mph - N/A Snow Light Snow
2:35 AM 30.2 °F 24.3 °F 30.2 °F 100% 29.98 in 0.2 mi South 5.8 mph - N/A Snow Light Snow
2:55 AM 30.2 °F 25.4 °F 30.2 °F 100% 29.99 in 0.2 mi WNW 4.6 mph - N/A Snow Light Snow
3:15 AM 30.2 °F 25.4 °F 30.2 °F 100% 29.99 in 0.2 mi South 4.6 mph - N/A   Overcast
3:35 AM 30.2 °F 26.7 °F 30.2 °F 100% 29.97 in 0.2 mi South 3.5 mph - N/A Snow Light Snow
3:55 AM 30.2 °F 25.4 °F 30.2 °F 100% 29.97 in 0.5 mi West 4.6 mph - N/A Fog Light Freezing Fog
4:15 AM 32.0 °F 27.5 °F 32.0 °F 100% 29.97 in 0.8 mi WSW 4.6 mph - N/A   Overcast
4:35 AM 37.4 °F 29.8 °F 37.4 °F 100% 29.97 in 10.0 mi WSW 11.5 mph - N/A   Overcast
4:55 AM 35.6 °F 26.2 °F 35.6 °F 100% 29.97 in 0.8 mi WSW 15.0 mph - N/A Rain Light Rain
5:15 AM 37.4 °F 28.9 °F 37.4 °F 100% 29.97 in 10.0 mi West 13.8 mph - N/A   Overcast
5:35 AM 37.4 °F 28.9 °F 37.4 °F 100% 29.98 in 2.0 mi WSW 13.8 mph - N/A   Overcast
5:55 AM 37.4 °F 29.3 °F 37.4 °F 100% 29.97 in 4.0 mi West 12.7 mph - N/A   Overcast
6:15 AM 37.4 °F 28.5 °F 37.4 °F 100% 29.97 in 1.8 mi West 15.0 mph - N/A   Overcast
6:35 AM 37.4 °F 29.3 °F 37.4 °F 100% 29.96 in 0.2 mi West 12.7 mph - N/A Fog Fog
6:55 AM 37.4 °F 29.3 °F 37.4 °F 100% 29.94 in 0.2 mi West 12.7 mph - N/A Rain Light Rain
7:15 AM 37.4 °F 28.5 °F 37.4 °F 100% 29.95 in 0.2 mi West 15.0 mph - N/A Rain Light Rain
7:35 AM 37.4 °F 28.9 °F 37.4 °F 100% 29.94 in 0.2 mi West 13.8 mph - N/A Snow Light Snow
7:55 AM 37.4 °F 29.8 °F 37.4 °F 100% 29.94 in 0.2 mi West 11.5 mph - N/A Snow Light Snow
8:15 AM 37.4 °F 31.4 °F 37.4 °F 100% 29.94 in 0.2 mi West 8.1 mph - N/A Rain Light Rain
8:35 AM 39.2 °F 33.6 °F 39.2 °F 100% 29.94 in 1.5 mi West 8.1 mph - N/A   Mostly Cloudy
8:55 AM 39.2 °F 34.2 °F 39.2 °F 100% 29.93 in 2.0 mi West 6.9 mph - N/A   Mostly Cloudy
9:15 AM 39.2 °F 34.2 °F 39.2 °F 100% 29.93 in 10.0 mi West 6.9 mph - N/A   Clear
9:35 AM 41.0 °F 38.0 °F 41.0 °F 100% 29.92 in 10.0 mi West 4.6 mph - N/A   Clear
9:55 AM 41.0 °F 36.4 °F 41.0 °F 100% 29.92 in 1.0 mi West 6.9 mph - N/A   Mostly Cloudy
10:15 AM 39.2 °F 34.2 °F 39.2 °F 100% 29.92 in 0.2 mi West 6.9 mph - N/A Fog Fog
10:35 AM 37.4 °F 31.4 °F 37.4 °F 100% 29.91 in 0.2 mi West 8.1 mph - N/A Fog Fog
10:55 AM 37.4 °F 31.4 °F 37.4 °F 100% 29.92 in 0.2 mi West 8.1 mph - N/A Rain Rain
11:15 AM 39.2 °F 34.2 °F 39.2 °F 100% 29.92 in 2.0 mi West 6.9 mph - N/A   Mostly Cloudy
11:35 AM 39.2 °F 33.6 °F 39.2 °F 100% 29.92 in 10.0 mi West 8.1 mph - N/A   Scattered Clouds
11:55 AM 39.2 °F 34.2 °F 39.2 °F 100% 29.92 in 10.0 mi West 6.9 mph - N/A   Clear
12:15 PM 41.0 °F 35.8 °F 39.2 °F 93% 29.91 in 10.0 mi West 8.1 mph - N/A   Clear
12:35 PM 42.8 °F 37.0 °F 39.2 °F 87% 29.91 in 10.0 mi West 10.4 mph - N/A   Clear
1:15 PM 44.6 °F 40.2 °F 39.2 °F 81% 29.89 in 10.0 mi WNW 8.1 mph - N/A   Clear
1:35 PM 44.6 °F 40.2 °F 39.2 °F 81% 29.88 in 10.0 mi WNW 8.1 mph - N/A   Clear
1:55 PM 44.6 °F 40.2 °F 37.4 °F 76% 29.88 in 10.0 mi WNW 8.1 mph - N/A   Clear
2:15 PM 46.4 °F 43.5 °F 37.4 °F 71% 29.87 in 10.0 mi West 5.8 mph - N/A   Clear
2:35 PM 46.4 °F 42.9 °F 37.4 °F 71% 29.86 in 10.0 mi West 6.9 mph - N/A   Clear
2:55 PM 46.4 °F 42.9 °F 37.4 °F 71% 29.86 in 10.0 mi West 6.9 mph - N/A   Clear
3:15 PM 44.6 °F 43.1 °F 35.6 °F 71% 29.86 in 10.0 mi SE 3.5 mph - N/A   Clear
3:35 PM 44.6 °F 43.1 °F 37.4 °F 76% 29.86 in 10.0 mi SSE 3.5 mph - N/A   Clear
3:55 PM 44.6 °F - 37.4 °F 76% 29.86 in 10.0 mi Calm Calm - N/A   Clear
4:15 PM 42.8 °F 41.1 °F 37.4 °F 81% 29.86 in 10.0 mi SSE 3.5 mph - N/A   Clear
4:35 PM 44.6 °F 43.1 °F 37.4 °F 76% 29.86 in 10.0 mi SSE 3.5 mph - N/A   Clear
4:55 PM 44.6 °F 42.2 °F 37.4 °F 76% 29.86 in 10.0 mi WSW 4.6 mph - N/A   Clear
5:15 PM 46.4 °F 44.3 °F 37.4 °F 71% 29.85 in 10.0 mi SW 4.6 mph - N/A   Clear
5:35 PM 44.6 °F 40.2 °F 35.6 °F 71% 29.86 in 10.0 mi WSW 8.1 mph - N/A   Clear
5:55 PM 42.8 °F 38.6 °F 35.6 °F 76% 29.86 in 10.0 mi WSW 6.9 mph - N/A   Clear
6:15 PM 39.2 °F 34.2 °F 35.6 °F 87% 29.85 in 10.0 mi WSW 6.9 mph - N/A   Clear
6:35 PM 42.8 °F 38.0 °F 35.6 °F 76% 29.84 in 10.0 mi WSW 8.1 mph - N/A   Clear
6:55 PM 42.8 °F 38.0 °F 35.6 °F 76% 29.85 in 10.0 mi SW 8.1 mph - N/A   Clear
7:15 PM 42.8 °F 39.3 °F 35.6 °F 76% 29.84 in 10.0 mi SW 5.8 mph - N/A   Clear
7:35 PM 42.8 °F 38.6 °F 35.6 °F 76% 29.83 in 10.0 mi WSW 6.9 mph - N/A   Clear
7:55 PM 42.8 °F 38.6 °F 35.6 °F 76% 29.84 in 10.0 mi WSW 6.9 mph - N/A   Clear
8:15 PM 41.0 °F 35.8 °F 35.6 °F 81% 29.84 in 10.0 mi WSW 8.1 mph - N/A   Clear
8:35 PM 41.0 °F 35.8 °F 35.6 °F 81% 29.84 in 10.0 mi WSW 8.1 mph - N/A   Clear
8:55 PM 41.0 °F 35.8 °F 35.6 °F 81% 29.83 in 10.0 mi WSW 8.1 mph - N/A   Clear
9:15 PM 41.0 °F 35.8 °F 35.6 °F 81% 29.82 in 10.0 mi West 8.1 mph - N/A   Clear
9:35 PM 42.8 °F 38.6 °F 35.6 °F 76% 29.81 in 10.0 mi West 6.9 mph - N/A   Clear
10:15 PM 41.0 °F 37.1 °F 35.6 °F 81% 29.82 in 10.0 mi West 5.8 mph - N/A   Clear
10:35 PM 39.2 °F 35.9 °F 35.6 °F 87% 29.82 in 10.0 mi WSW 4.6 mph - N/A   Clear
11:15 PM 35.6 °F 30.7 °F 35.6 °F 100% 29.83 in 10.0 mi WSW 5.8 mph - N/A   Scattered Clouds
11:35 PM 39.2 °F 35.9 °F 37.4 °F 93% 29.82 in 10.0 mi West 4.6 mph - N/A   Mostly Cloudy
11:55 PM 37.4 °F 32.8 °F 35.6 °F 93% 29.82 in 10.0 mi West 5.8 mph - N/A   Scattered Clouds